Time,TemperatureF,DewpointF,PressureIn,WindDirection,WindDirectionDegrees,WindSpeedMPH,WindSpeedGustMPH,Humidity,HourlyPrecipIn,Conditions,Clouds,dailyrainin,SolarRadiationWatts/m^2,SoftwareType,DateUTC
2013-05-19 00:02:00,59.0,58.0,-100.00,East,80,4.0,9.0,97,0.00,,,0.29,0.000000,,2013-05-19 05:02:00,
2013-05-19 00:32:00,58.0,57.0,-100.00,ENE,75,3.0,8.0,98,0.00,,,0.29,0.000000,,2013-05-19 05:32:00,
2013-05-19 00:42:00,58.0,57.0,-100.00,ENE,75,3.0,8.0,98,0.00,,,0.29,0.000000,,2013-05-19 05:42:00,
2013-05-19 00:52:00,58.0,57.0,-100.00,ENE,75,3.0,8.0,98,0.00,,,0.29,0.000000,,2013-05-19 05:52:00,
2013-05-19 01:02:00,58.0,57.0,-100.00,ENE,75,3.0,8.0,98,0.00,,,0.29,0.000000,,2013-05-19 06:02:00,
2013-05-19 01:32:00,57.0,56.0,-100.00,ENE,70,4.0,9.0,98,0.00,,,0.29,0.000000,,2013-05-19 06:32:00,
2013-05-19 01:42:00,57.0,56.0,-100.00,ENE,70,4.0,9.0,98,0.00,,,0.29,0.000000,,2013-05-19 06:42:00,
2013-05-19 01:52:00,57.0,56.0,-100.00,ENE,70,4.0,9.0,98,0.00,,,0.29,0.000000,,2013-05-19 06:52:00,
2013-05-19 02:01:00,57.0,56.0,-100.00,ENE,70,4.0,9.0,98,0.00,,,0.29,0.000000,,2013-05-19 07:01:00,
2013-05-19 02:32:00,56.0,55.0,-100.00,East,92,4.0,9.0,98,0.02,,,0.31,0.000000,,2013-05-19 07:32:00,
2013-05-19 02:42:00,56.0,55.0,-100.00,East,92,4.0,9.0,98,0.02,,,0.31,0.000000,,2013-05-19 07:42:00,
2013-05-19 02:52:00,56.0,55.0,-100.00,East,92,4.0,9.0,98,0.02,,,0.31,0.000000,,2013-05-19 07:52:00,
2013-05-19 03:01:00,56.0,55.0,-100.00,East,92,4.0,9.0,98,0.02,,,0.31,0.000000,,2013-05-19 08:01:00,
2013-05-19 03:32:00,56.0,56.0,-100.00,East,86,4.0,9.0,99,0.00,,,0.31,0.000000,,2013-05-19 08:32:00,
2013-05-19 03:42:00,56.0,56.0,-100.00,East,86,4.0,9.0,99,0.00,,,0.31,0.000000,,2013-05-19 08:42:00,
2013-05-19 03:52:00,56.0,56.0,-100.00,East,86,4.0,9.0,99,0.00,,,0.31,0.000000,,2013-05-19 08:52:00,
2013-05-19 04:02:00,56.0,56.0,-100.00,East,86,4.0,9.0,99,0.00,,,0.31,0.000000,,2013-05-19 09:02:00,
2013-05-19 04:33:00,56.0,56.0,-100.00,East,84,2.0,7.0,99,0.00,,,0.31,0.000000,,2013-05-19 09:33:00,
2013-05-19 04:43:00,56.0,56.0,-100.00,East,84,2.0,7.0,99,0.00,,,0.31,0.000000,,2013-05-19 09:43:00,
2013-05-19 04:53:00,56.0,56.0,-100.00,East,84,2.0,7.0,99,0.00,,,0.31,0.000000,,2013-05-19 09:53:00,
2013-05-19 05:02:00,56.0,56.0,-100.00,East,84,2.0,7.0,99,0.00,,,0.31,0.000000,,2013-05-19 10:02:00,
2013-05-19 05:33:00,57.0,56.0,-100.00,ESE,121,5.0,11.0,97,0.00,,,0.25,0.000000,,2013-05-19 10:33:00,
2013-05-19 05:42:00,57.0,56.0,-100.00,ESE,121,5.0,11.0,97,0.00,,,0.25,0.000000,,2013-05-19 10:42:00,
2013-05-19 05:53:00,57.0,56.0,-100.00,ESE,121,5.0,11.0,97,0.00,,,0.25,0.000000,,2013-05-19 10:53:00,
2013-05-19 06:02:00,57.0,56.0,-100.00,ESE,121,5.0,11.0,97,0.00,,,0.25,0.000000,,2013-05-19 11:02:00,
2013-05-19 06:32:00,56.0,55.0,-100.00,SE,126,4.0,10.0,98,0.00,,,0.04,1.000000,,2013-05-19 11:32:00,
2013-05-19 06:42:00,56.0,55.0,-100.00,SE,126,4.0,10.0,98,0.00,,,0.04,1.000000,,2013-05-19 11:42:00,
2013-05-19 06:52:00,56.0,55.0,-100.00,SE,126,4.0,10.0,98,0.00,,,0.04,1.000000,,2013-05-19 11:52:00,
2013-05-19 07:01:00,56.0,55.0,-100.00,SE,126,4.0,10.0,98,0.00,,,0.04,1.000000,,2013-05-19 12:01:00,
2013-05-19 07:32:00,57.0,56.0,-100.00,SSE,151,4.0,8.0,97,0.00,,,0.04,10.000000,,2013-05-19 12:32:00,
2013-05-19 07:42:00,57.0,56.0,-100.00,SSE,151,4.0,8.0,97,0.00,,,0.04,10.000000,,2013-05-19 12:42:00,
2013-05-19 07:52:00,57.0,56.0,-100.00,SSE,151,4.0,8.0,97,0.00,,,0.04,10.000000,,2013-05-19 12:52:00,
2013-05-19 08:01:00,57.0,56.0,-100.00,SSE,151,4.0,8.0,97,0.00,,,0.04,10.000000,,2013-05-19 13:01:00,
2013-05-19 09:32:00,60.0,58.0,-100.00,East,86,4.0,12.0,94,-99.99,,,0.03,73.000000,,2013-05-19 14:32:00,
2013-05-19 09:42:00,60.0,58.0,-100.00,East,86,4.0,12.0,94,-99.99,,,0.03,73.000000,,2013-05-19 14:42:00,
2013-05-19 09:52:00,60.0,58.0,-100.00,East,86,4.0,12.0,94,-99.99,,,0.03,73.000000,,2013-05-19 14:52:00,
2013-05-19 10:01:00,60.0,58.0,-100.00,East,86,4.0,12.0,94,-99.99,,,0.03,73.000000,,2013-05-19 15:01:00,
2013-05-19 10:33:00,60.0,58.0,-100.00,NNE,33,9.0,15.0,92,0.00,,,0.02,187.000000,,2013-05-19 15:33:00,
2013-05-19 10:43:00,60.0,58.0,-100.00,NNE,33,9.0,15.0,92,0.00,,,0.02,187.000000,,2013-05-19 15:43:00,
2013-05-19 10:53:00,60.0,58.0,-100.00,NNE,33,9.0,15.0,92,0.00,,,0.02,187.000000,,2013-05-19 15:53:00,
2013-05-19 11:03:00,60.0,58.0,-100.00,NNE,33,9.0,15.0,92,0.00,,,0.02,187.000000,,2013-05-19 16:03:00,
2013-05-19 11:33:00,61.0,58.0,-100.00,East,79,5.0,14.0,90,0.01,,,0.03,281.000000,,2013-05-19 16:33:00,
2013-05-19 11:42:00,61.0,58.0,-100.00,East,79,5.0,14.0,90,0.01,,,0.03,281.000000,,2013-05-19 16:42:00,
2013-05-19 11:52:00,61.0,58.0,-100.00,East,79,5.0,14.0,90,0.01,,,0.03,281.000000,,2013-05-19 16:52:00,
2013-05-19 12:02:00,61.0,58.0,-100.00,East,79,5.0,14.0,90,0.01,,,0.03,281.000000,,2013-05-19 17:02:00,
2013-05-19 12:32:00,67.0,62.0,-100.00,ESE,119,5.0,13.0,84,0.00,,,0.03,192.000000,,2013-05-19 17:32:00,
2013-05-19 12:43:00,67.0,62.0,-100.00,ESE,119,5.0,13.0,84,0.00,,,0.03,192.000000,,2013-05-19 17:43:00,
2013-05-19 12:52:00,67.0,62.0,-100.00,ESE,119,5.0,13.0,84,0.00,,,0.03,192.000000,,2013-05-19 17:52:00,
2013-05-19 13:02:00,67.0,62.0,-100.00,ESE,119,5.0,13.0,84,0.00,,,0.03,192.000000,,2013-05-19 18:02:00,
2013-05-19 13:32:00,73.0,62.0,-100.00,SE,135,6.0,15.0,68,0.00,,,0.03,742.000000,,2013-05-19 18:32:00,
2013-05-19 13:43:00,73.0,62.0,-100.00,SE,135,6.0,15.0,68,0.00,,,0.03,742.000000,,2013-05-19 18:43:00,
2013-05-19 13:53:00,73.0,62.0,-100.00,SE,135,6.0,15.0,68,0.00,,,0.03,742.000000,,2013-05-19 18:53:00,
2013-05-19 14:01:00,73.0,62.0,-100.00,SE,135,6.0,15.0,68,0.00,,,0.03,742.000000,,2013-05-19 19:01:00,
2013-05-19 14:32:00,74.0,61.0,-100.00,ESE,113,8.0,17.0,64,0.00,,,0.03,689.000000,,2013-05-19 19:32:00,
2013-05-19 14:42:00,74.0,61.0,-100.00,ESE,113,8.0,17.0,64,0.00,,,0.03,689.000000,,2013-05-19 19:42:00,
2013-05-19 14:52:00,74.0,61.0,-100.00,ESE,113,8.0,17.0,64,0.00,,,0.03,689.000000,,2013-05-19 19:52:00,
2013-05-19 15:02:00,74.0,61.0,-100.00,ESE,113,8.0,17.0,64,0.00,,,0.03,689.000000,,2013-05-19 20:02:00,
2013-05-19 15:32:00,69.0,64.0,-100.00,ESE,119,5.0,16.0,85,0.01,,,0.04,259.000000,,2013-05-19 20:32:00,
2013-05-19 15:42:00,69.0,64.0,-100.00,ESE,119,5.0,16.0,85,0.01,,,0.04,259.000000,,2013-05-19 20:42:00,
2013-05-19 15:52:00,69.0,64.0,-100.00,ESE,119,5.0,16.0,85,0.01,,,0.04,259.000000,,2013-05-19 20:52:00,
2013-05-19 16:02:00,69.0,64.0,-100.00,ESE,119,5.0,16.0,85,0.01,,,0.04,259.000000,,2013-05-19 21:02:00,
2013-05-19 16:32:00,73.0,65.0,-100.00,East,101,6.0,13.0,75,0.00,,,0.04,723.000000,,2013-05-19 21:32:00,
2013-05-19 16:43:00,73.0,65.0,-100.00,East,101,6.0,13.0,75,0.00,,,0.04,723.000000,,2013-05-19 21:43:00,
2013-05-19 16:53:00,73.0,65.0,-100.00,East,101,6.0,13.0,75,0.00,,,0.04,723.000000,,2013-05-19 21:53:00,
2013-05-19 17:03:00,73.0,65.0,-100.00,East,101,6.0,13.0,75,0.00,,,0.04,723.000000,,2013-05-19 22:03:00,
2013-05-19 17:33:00,76.0,64.0,-100.00,East,91,7.0,14.0,66,0.00,,,0.04,470.000000,,2013-05-19 22:33:00,
2013-05-19 17:42:00,76.0,64.0,-100.00,East,91,7.0,14.0,66,0.00,,,0.04,470.000000,,2013-05-19 22:42:00,
2013-05-19 17:53:00,76.0,64.0,-100.00,East,91,7.0,14.0,66,0.00,,,0.04,470.000000,,2013-05-19 22:53:00,
2013-05-19 18:02:00,76.0,64.0,-100.00,East,91,7.0,14.0,66,0.00,,,0.04,470.000000,,2013-05-19 23:02:00,
2013-05-19 18:32:00,73.0,62.0,-100.00,East,87,7.0,15.0,69,0.00,,,0.04,319.000000,,2013-05-19 23:32:00,
2013-05-19 18:42:00,73.0,62.0,-100.00,East,87,7.0,15.0,69,0.00,,,0.04,319.000000,,2013-05-19 23:42:00,
2013-05-19 18:52:00,73.0,62.0,-100.00,East,87,7.0,15.0,69,0.00,,,0.04,319.000000,,2013-05-19 23:52:00,
2013-05-19 19:02:00,73.0,62.0,-100.00,East,87,7.0,15.0,69,0.00,,,0.04,319.000000,,2013-05-20 00:02:00,
2013-05-19 19:32:00,66.0,63.0,-100.00,SE,137,4.0,15.0,90,0.03,,,-99.99,12.000000,,2013-05-20 00:32:00,
2013-05-19 19:42:00,66.0,63.0,-100.00,SE,137,4.0,15.0,90,0.03,,,-99.99,12.000000,,2013-05-20 00:42:00,
2013-05-19 19:52:00,66.0,63.0,-100.00,SE,137,4.0,15.0,90,0.03,,,-99.99,12.000000,,2013-05-20 00:52:00,
2013-05-19 20:01:00,66.0,63.0,-100.00,SE,137,4.0,15.0,90,0.03,,,-99.99,12.000000,,2013-05-20 01:01:00,
2013-05-19 20:32:00,63.0,61.0,-100.00,ESE,103,3.0,17.0,92,0.01,,,0.08,16.000000,,2013-05-20 01:32:00,
2013-05-19 20:42:00,63.0,61.0,-100.00,ESE,103,3.0,17.0,92,0.01,,,0.08,16.000000,,2013-05-20 01:42:00,
2013-05-19 20:52:00,63.0,61.0,-100.00,ESE,103,3.0,17.0,92,0.01,,,0.08,16.000000,,2013-05-20 01:52:00,
2013-05-19 21:02:00,63.0,61.0,-100.00,ESE,103,3.0,17.0,92,0.01,,,0.08,16.000000,,2013-05-20 02:02:00,
2013-05-19 21:32:00,61.0,60.0,-100.00,ENE,77,5.0,10.0,96,0.01,,,0.09,4.000000,,2013-05-20 02:32:00,
2013-05-19 21:42:00,61.0,60.0,-100.00,ENE,77,5.0,10.0,96,0.01,,,0.09,4.000000,,2013-05-20 02:42:00,
2013-05-19 21:52:00,61.0,60.0,-100.00,ENE,77,5.0,10.0,96,0.01,,,0.09,4.000000,,2013-05-20 02:52:00,
2013-05-19 22:01:00,61.0,60.0,-100.00,ENE,77,5.0,10.0,96,0.01,,,0.09,4.000000,,2013-05-20 03:01:00,
2013-05-19 22:33:00,58.0,57.0,-100.00,ENE,59,7.0,15.0,97,0.08,,,0.17,0.000000,,2013-05-20 03:33:00,
2013-05-19 22:43:00,58.0,57.0,-100.00,ENE,59,7.0,15.0,97,0.08,,,0.17,0.000000,,2013-05-20 03:43:00,
2013-05-19 22:52:00,58.0,57.0,-100.00,ENE,59,7.0,15.0,97,0.08,,,0.17,0.000000,,2013-05-20 03:52:00,
2013-05-19 23:03:00,58.0,57.0,-100.00,ENE,59,7.0,15.0,97,0.08,,,0.17,0.000000,,2013-05-20 04:03:00,
2013-05-19 23:33:00,56.0,55.0,-100.00,ENE,70,7.0,15.0,97,0.12,,,-99.99,0.000000,,2013-05-20 04:33:00,
2013-05-19 23:43:00,56.0,55.0,-100.00,ENE,70,7.0,15.0,97,0.12,,,-99.99,0.000000,,2013-05-20 04:43:00,
2013-05-19 23:53:00,56.0,55.0,-100.00,ENE,70,7.0,15.0,97,0.12,,,-99.99,0.000000,,2013-05-20 04:53:00,